STARLINK-2095 (47679 NORAD) Tracking and Keplerian Element Data

This shows tracking and keplerian element data for the satellite.

Feedback or suggestion? Click here.




ElementValue
Catalog47679
NameSTARLINK-2095
Epoch Orbit183
Epoch Day56.91667824
Epoch Year2021
RAAN53.6697
Inclination53.049
Eccentricity0.0001149
Argument of Perigee66.6689
Mean Anonmoly23.7565
Mean Motion15.79476319
Decay Rate-0.0106903
L11 47679U 21012BM 21056.91667824 -.01069030 00000-0 -64090-2 0 9998
L22 47679 53.0490 53.6697 0001149 66.6689 23.7565 15.79476319 1830

Live tracking and technical data element details for STARLINK-2095 (NORAD 47679). STARLINK-2095 can be tracked NOW for your location showing map with azimuth and elevation plus other details from your city location.

Track the satellite on the map from your city or location and see movement details for azimuth, elevation, latitude, longitude, range, height, and movement on the map or in text.







IsCatalogInMostPopularTable: catalog: 47679, numindb: 1
Update: records affected: 1



GetName: 47679 STARLINK-2095

Hit Count: updated at: Fri, 26 Feb 2021 10:17:02 GMT